Tracking 28790 objects as of 19-Apr-2024
HD Live streaming from Space Station
objects crossing your sky now

STARLINK-3079

Track STARLINK-3079 now!
10-day predictions
STARLINK-3079 is classified as:


NORAD ID: 49433
Int'l Code: 2021-104AB
Perigee: 545.9 km
Apogee: 548.0 km
Inclination: 53.2 °
Period: 95.4 minutes
Semi major axis: 6917 km
RCS: Unknown
Launch date: November 13, 2021
Source: United States (US)
Launch site: AIR FORCE EASTERN TEST RANGE (AFETR)
Your satellite tracking list
Your tracking list is empty




NASA's NSSDC Master Catalog

Two Line Element Set (TLE):
1 49433U 21104AB  24109.27880057  .00004796  00000-0  31934-3 0  9993
2 49433  53.2162  68.4928 0001494  94.7618 265.3545 15.08825553135779
Source of the keplerian elements: AFSPC